Regional Weather Roundup
Issued by NWS

Home | Current Version | Previous Version | Text Only | Print | Product List | Glossary Off
Versions: 1 2 3 4 5 6 7 8 9 10 11 12 13 14 15 16 17 18 19 20 21 22 23 24 25 26 27 28 29 30 31 32 33 34 35 36 37 38 39 40 41 42 43 44 45 46 47 48 49 50

000
ASUS43 KDTX 160310
RWRMI
MICHIGAN HOURLY REGIONAL WEATHER ROUNDUP
NATIONAL WEATHER SERVICE DETROIT/PONTIAC MI
ISSUED BY NATIONAL WEATHER SERVICE GRAND RAPIDS MI
1000 PM EST SUN JAN 15 2017

NOTE: "FAIR" INDICATES FEW OR NO CLOUDS BELOW 12,000 FEET WITH NO
SIGNIFICANT WEATHER AND/OR OBSTRUCTION TO VISIBILITY.

MIZ047>049-052>055-059>063-066>070-074>076-081>083-160400-
SOUTHEAST LOWER MICHIGAN

CITY           SKY/WX    TMP DP  RH WIND       PRES   REMARKS
ADRIAN         PTCLDY    26  24  92 CALM      30.37S
ALMA           CLOUDY    27  23  85 SW5       30.32F WCI  22
ANN ARBOR      PTCLDY    19  18  95 CALM      30.35S FOG
BAD AXE        CLEAR     20  18  92 S5        30.32F WCI  13
DETROIT CITY   CLOUDY    25  22  88 S3        30.37S
DETROIT        CLOUDY    26  22  84 S3        30.37S FOG
FLINT          CLOUDY    25  20  81 S5        30.34S WCI  19
GROSSE ILE     CLOUDY    27  23  85 CALM      30.36S
HILLSDALE      PTCLDY    27  21  80 CALM      30.32S
HOWELL         CLOUDY    26  22  85 S3        30.32F

CITY           SKY/WX    TMP DP  RH WIND       PRES   REMARKS
JACKSON        PTCLDY    26  20  77 CALM      30.33F
LANSING        CLOUDY    23  18  81 S5        30.33F WCI  17
MASON          CLOUDY    26  24  93 CALM      30.33F
MONROE         CLOUDY    25  24  94 CALM      30.37R
MT. CLEMENS    PTCLDY    22  20  89 S3        30.34S
PONTIAC        CLOUDY    25  20  81 CALM      30.32F
PORT HOPE        N/A     26  21  81 SW6       30.31R WCI  19
PORT HURON     CLEAR     23  21  93 CALM      30.36S FOG
TRI CITIES     CLEAR     26  23  88 SW6       30.33S WCI  19
YPSILANTI      CLOUDY    25  22  88 CALM      30.36S
$$
MIZ043>046-050>051-056>058-064>065-071>073-077>080-160400-
SOUTHWEST LOWER MICHIGAN

CITY           SKY/WX    TMP DP  RH WIND       PRES   REMARKS
BATTLE CREEK   PTCLDY    23  21  92 S6        30.34S WCI  16
BENTON HARBOR  PTCLDY    29  23  78 S3        30.34F
BIG RAPIDS     CLOUDY    19  17  90 CALM      30.29S
COLDWATER      CLOUDY    29  25  83 S3        30.34R
HOLLAND        CLOUDY    28  23  81 CALM      30.34S
GRAND RAPIDS   CLOUDY    24  18  77 S5        30.32F WCI  18
KALAMAZOO      PTCLDY    28  21  75 CALM      30.34S HAZE
MARSHALL       PTCLDY    24  22  93 S5        30.32F WCI  18
MOUNT PLEASANT CLOUDY    19  17  89 CALM      30.31S
MUSKEGON       CLOUDY    23  18  81 CALM      30.33S
STURGIS        CLOUDY    29  23  79 CALM      30.34S
$$
MIZ016>042-160400-
NORTHERN LOWER MICHIGAN

CITY           SKY/WX    TMP DP  RH WIND       PRES   REMARKS
ALPENA         CLEAR     21  13  71 SW3       30.26F
BEAVER ISLAND  CLEAR     32  27  80 SW13G23   30.22S WCI  22
BELLAIRE       CLEAR     17  16  95 CALM      30.29S
CADILLAC       CLOUDY    20  17  86 SW5       30.25S WCI  14
CHARLEVOIX     CLEAR     28  22  81 S5        30.28S WCI  22
GAYLORD        CLOUDY    20  13  74 SW9       30.23S WCI   9
HOUGHTON LAKE  CLOUDY    22  17  81 SW7       30.28S WCI  13
MANISTEE       CLOUDY    15  12  88 E3        30.31R
OSCODA         CLEAR     22  18  83 S5        30.29F WCI  16
PELLSTON       CLEAR     28  20  71 SW12      30.23F WCI  18
TRAVERSE CITY  CLOUDY    24  18  77 S3        30.27S
LUDINGTON      CLOUDY    22  21  98 CALM      30.30S FOG
$$
MIZ007>008-015-160400-
EASTERN UPPER MICHIGAN

CITY           SKY/WX    TMP DP  RH WIND       PRES   REMARKS
KINROSS        CLEAR     25  24  96 SW6       30.19S WCI  18
MACKINAC ISLAN CLEAR     25  22  88 S8        30.21S WCI  16
NEWBERRY       CLEAR     23  20  89 SW14      30.17S WCI  11
S. S. MARIE    CLEAR     23  19  85 CALM      30.18S
$$
MIZ004>006-011>014-085-160400-
CENTRAL UPPER MICHIGAN

CITY           SKY/WX    TMP DP  RH WIND       PRES   REMARKS
MANISTIQUE     CLEAR     23  14  69 SW9       30.20S WCI  13
ESCANABA       CLOUDY    18  13  80 S6        30.21F WCI  10
SAWYER-GWINN   CLEAR     19  12  73 SW8       30.12F WCI   9
$$
MIZ001>003-009>011-084-160400-
WESTERN UPPER MICHIGAN

CITY           SKY/WX    TMP DP  RH WIND       PRES   REMARKS
IRON MOUNTAIN  CLEAR     24   8  50 W5        30.16S WCI  18
HOUGHTON       CLEAR     32   9  38 W17       30.06R WCI  21
COPPER HARBOR    N/A     34  11  38 MISG      30.04S
IRONWOOD       CLEAR     26  12  55 SW16G22   30.11F WCI  14
$$

ABBREVIATIONS USED IN REMARKS
   TC - TEMPERATURE IN CELSIUS
  WCI - WIND CHILL INDEX
   HX - HEAT INDEX
  VSB - VISIBILITY




USA.gov is the U.S. government's official web portal to all federal, state and local government web resources and services.